Regional Weather Roundup
Issued by NWS

Home | Current Version | Previous Version | Graphics & Text | Print | Product List | Glossary On
Versions: 1 2 3 4 5 6 7 8 9 10 11 12 13 14 15 16 17 18 19 20 21 22 23 24 25 26 27 28 29 30 31 32 33 34 35 36 37 38 39 40 41 42 43 44 45 46 47 48 49 50
103
ASUS43 KBIS 201802
RWRND

NORTH DAKOTA REGIONAL WEATHER ROUNDUP
NATIONAL WEATHER SERVICE BISMARCK ND
1200 PM CST SAT JAN 20 2018

NOTE: "FAIR" INDICATES FEW OR NO CLOUDS BELOW 12,000 FEET WITH NO
SIGNIFICANT WEATHER AND/OR OBSTRUCTIONS TO VISIBILITY.


NDZ001>003-009>011-017-201900-
NORTHWEST NORTH DAKOTA

CITY           SKY/WX    TMP DP  RH WIND       PRES   REMARKS
WILLISTON      SUNNY     31  21  66 VRB5      29.86R
6HR MIN TEMP:  24; 6HR MAX TEMP:  31;

MINOT          SUNNY     33  22  63 SW14      29.79S
MINOT AFB      SUNNY     33  24  67 W15       29.78S
$$

NDZ018>021-031>035-040>046-201900-
SOUTHWEST NORTH DAKOTA

CITY           SKY/WX    TMP DP  RH WIND       PRES   REMARKS
BISMARCK       MOSUNNY   39  29  67 W9        29.88S
6HR MIN TEMP:  30; 6HR MAX TEMP:  39;

DICKINSON      MOSUNNY   36  24  62 W16       29.85S
GARRISON         N/A     37  26  64 W15       29.83R
6HR MIN TEMP:  26; 6HR MAX TEMP:  37;

HETTINGER ARPT CLOUDY    36  27  69 W15       29.91R
$$

NDZ004>008-012>016-024-026-027-054-201900-
NORTHEAST NORTH DAKOTA

CITY           SKY/WX    TMP DP  RH WIND       PRES   REMARKS
GRAND FORKS    PTSUNNY   35  28  75 W7        29.82S
GRND FRKS AFB  FAIR      35  26  68 W9        29.82R
DEVILS LAKE    FAIR      32  26  78 W13       29.81S
$$

NDZ022-023-025-028>030-036>039-047>053-201900-
SOUTHEAST NORTH DAKOTA

CITY           SKY/WX    TMP DP  RH WIND       PRES   REMARKS
FARGO          FAIR      35  31  85 W8        29.84F
6HR MIN TEMP:  25; 6HR MAX TEMP:  35;

JAMESTOWN      CLOUDY    37  30  75 W12       29.83S
$$





USA.gov is the U.S. government's official web portal to all federal, state and local government web resources and services.